Alpena, MI

7:30 AM EST on February 08, 2016 (GMT -0500)
Alpena County Regional

Weather History for KAPN - November, 2011

Change the Weather History Date:

Wednesday, November 9, 2011

  Actual Average Record
Temperature  
Mean Temperature 48 °F 38 °F  
Max Temperature 56 °F 46 °F 75 °F (1999)
Min Temperature 39 °F 30 °F 13 °F (2003)
Degree Days  
Heating Degree Days 17 27  
Month to date heating degree days 195 231  
Since 1 July heating degree days 984 1175  
Moisture  
Dew Point 45 °F    
Average Humidity 83    
Maximum Humidity 100    
Minimum Humidity 66    
Precipitation  
Precipitation 0.58 in 0.07 in 1.58 in (2000)
Month to date precipitation 1.60 0.65  
Year to date precipitation 34.93 24.96  
Snow  
Snow 0.00 in 0.20 in 4.80 in (1985)
Month to date snowfall 0.0 1.2  
Since 1 July snowfall 0.0 1.6  
Snow Depth 0.00 in    
Sea Level Pressure  
Sea Level Pressure 29.62 in    
Wind  
Wind Speed 12 mph (ESE)    
Max Wind Speed 26 mph    
Max Gust Speed 37 mph    
Visibility 7 miles    
Events Fog , Rain    
T = Trace of Precipitation, MM = Missing Value Source: NWS Daily Summary

Daily Weather History Graph

Daily Weather History Graph

Search for Another Location

Airport or City:

Trip Planner

Search our weather history database for the weather conditions in past years. The results will help you decide how hot, cold, wet, or windy it might be!

Date:

Astronomy

Nov. 09, 2011 Rise Set
Actual Time 7:23 AM EST 5:11 PM EST
Civil Twilight 6:52 AM EST 5:43 PM EST
Nautical Twilight 6:17 AM EST 6:18 PM EST
Astronomical Twilight 5:42 AM EST 6:52 PM EST
Moon 4:22 PM EST (11/9) 6:17 AM EST (11/9)
Length of Visible Light 10h 51m
Length of Day
9h 48m
Waxing Gibbous, 99% of the Moon is Illuminated
Nov 9
Waxing Gibbous
Nov 10
Full
Nov 18
Last Quarter
Nov 25
New
Dec 2
First Quarter

Hourly Weather History & Observations

Time (EST) Temp. Windchill Dew Point Humidity Pressure Visibility Wind Dir Wind Speed Gust Speed Precip Events Conditions
12:54 AM 41.0 °F 35.2 °F 39.9 °F 96% 30.08 in 3.0 mi NNE 9.2 mph - 0.04 in Rain Light Rain
1:54 AM 42.1 °F 37.1 °F 39.9 °F 92% 30.04 in 6.0 mi NE 8.1 mph - 0.03 in Rain Light Rain
2:54 AM 42.1 °F 37.1 °F 39.9 °F 92% 30.04 in 10.0 mi NNE 8.1 mph - 0.00 in   Overcast
3:54 AM 42.1 °F 37.7 °F 41.0 °F 96% 30.00 in 10.0 mi NE 6.9 mph - N/A   Overcast
4:54 AM 42.1 °F 37.7 °F 41.0 °F 96% 29.98 in 10.0 mi NE 6.9 mph - 0.00 in Rain Light Rain
5:54 AM 43.0 °F 38.2 °F 41.0 °F 93% 29.96 in 10.0 mi NE 8.1 mph - 0.00 in Rain Light Rain
6:54 AM 43.0 °F 37.7 °F 41.0 °F 93% 29.92 in 6.0 mi NE 9.2 mph - 0.13 in Rain Rain
7:54 AM 43.0 °F 37.7 °F 42.1 °F 97% 29.90 in 9.0 mi NE 9.2 mph - 0.07 in Rain Light Rain
8:54 AM 43.0 °F 37.7 °F 42.1 °F 97% 29.88 in 8.0 mi NE 9.2 mph - 0.08 in Rain Light Rain
9:54 AM 44.1 °F 38.1 °F 42.1 °F 93% 29.83 in 9.0 mi NE 11.5 mph - 0.02 in Rain Light Rain
10:54 AM 44.1 °F 38.6 °F 43.0 °F 96% 29.78 in 5.0 mi ENE 10.4 mph - 0.04 in Rain Rain
11:06 AM 44.6 °F 38.4 °F 42.8 °F 93% 29.75 in 1.8 mi NE 12.7 mph - 0.05 in Rain Rain
11:14 AM 44.6 °F 38.1 °F 42.8 °F 93% 29.72 in 3.0 mi NE 13.8 mph - 0.06 in Rain Light Rain
11:39 AM 44.6 °F 38.1 °F 42.8 °F 93% 29.71 in 10.0 mi ENE 13.8 mph 20.7 mph 0.07 in   Overcast
11:54 AM 45.0 °F 39.3 °F 44.1 °F 97% 29.72 in 10.0 mi ENE 11.5 mph - 0.07 in   Overcast
12:13 PM 44.6 °F 39.7 °F 44.6 °F 100% 29.66 in 2.0 mi NE 9.2 mph - N/A   Overcast
12:20 PM 44.6 °F 40.2 °F 44.6 °F 100% 29.66 in 0.8 mi NE 8.1 mph - N/A   Overcast
12:33 PM 46.4 °F 41.9 °F 44.6 °F 93% 29.64 in 0.2 mi ENE 9.2 mph - 0.00 in Fog , Rain Light Rain
12:54 PM 46.9 °F - 46.0 °F 97% 29.63 in 0.2 mi East 5.8 mph - 0.01 in Fog , Rain Light Rain
1:19 PM 48.2 °F - 48.2 °F 100% 29.58 in 0.5 mi ESE 9.2 mph - 0.02 in Fog , Rain Light Rain
1:25 PM 50.0 °F - 48.2 °F 94% 29.58 in 1.0 mi ESE 10.4 mph - 0.03 in Rain Light Rain
1:54 PM 50.0 °F - 50.0 °F 100% 29.55 in 1.2 mi ESE 11.5 mph - 0.04 in   Overcast
2:54 PM 52.0 °F - 51.1 °F 97% 29.49 in 2.0 mi SE 12.7 mph - 0.03 in Rain Light Rain
3:09 PM 51.8 °F - 51.8 °F 100% 29.47 in 2.0 mi SSE 15.0 mph 21.9 mph 0.00 in Rain Light Rain
3:29 PM 53.6 °F - 51.8 °F 94% 29.46 in 10.0 mi SSE 15.0 mph - 0.00 in Rain Light Rain
3:54 PM 54.0 °F - 52.0 °F 93% 29.46 in 10.0 mi SSE 10.4 mph - 0.00 in   Overcast
4:14 PM 53.6 °F - 53.6 °F 100% 29.43 in 10.0 mi SSE 10.4 mph - 0.01 in   Overcast
4:22 PM 53.6 °F - 53.6 °F 100% 29.43 in 10.0 mi SSE 11.5 mph - 0.01 in   Overcast
4:37 PM 55.4 °F - 53.6 °F 94% 29.42 in 10.0 mi SSE 12.7 mph - 0.01 in   Overcast
4:54 PM 55.0 °F - 53.1 °F 93% 29.42 in 10.0 mi SSE 13.8 mph - 0.01 in   Overcast
5:22 PM 55.4 °F - 53.6 °F 94% 29.39 in 10.0 mi SSE 12.7 mph - N/A   Overcast
5:45 PM 55.4 °F - 53.6 °F 94% 29.38 in 10.0 mi SSE 17.3 mph 25.3 mph 0.01 in   Overcast
5:54 PM 55.9 °F - 53.1 °F 90% 29.39 in 10.0 mi SSE 19.6 mph 28.8 mph 0.01 in   Overcast
6:16 PM 55.4 °F - 51.8 °F 88% 29.38 in 10.0 mi South 19.6 mph 27.6 mph N/A   Overcast
6:24 PM 55.4 °F - 51.8 °F 88% 29.39 in 10.0 mi South 19.6 mph 28.8 mph N/A   Mostly Cloudy
6:54 PM 55.0 °F - 48.9 °F 80% 29.39 in 10.0 mi South 20.7 mph 25.3 mph N/A   Mostly Cloudy
7:54 PM 51.1 °F - 42.1 °F 71% 29.40 in 10.0 mi SSW 15.0 mph 34.5 mph N/A   Mostly Cloudy
8:54 PM 48.0 °F - 37.9 °F 68% 29.40 in 10.0 mi SSW 21.9 mph 31.1 mph N/A   Overcast
9:22 PM 46.4 °F 39.0 °F 37.4 °F 71% 29.38 in 10.0 mi SSW 19.6 mph 29.9 mph N/A   Overcast
9:54 PM 46.9 °F - 39.0 °F 74% 29.39 in 10.0 mi SSW 20.7 mph 26.5 mph N/A   Overcast
10:54 PM 42.1 °F 34.5 °F 36.0 °F 79% 29.44 in 10.0 mi WSW 15.0 mph 34.5 mph 0.00 in Rain Light Rain
11:54 PM 39.0 °F 29.6 °F 32.0 °F 76% 29.52 in 10.0 mi WSW 18.4 mph 31.1 mph 0.00 in   Overcast